Weather History for Litchfield, MN

Change the Weather History Date:

Monday, January 13, 2014

  Actual Average Record
Temperature  
Mean Temperature 30 °F -  
Max Temperature 35 °F 21 °F 48 °F (1987)
Min Temperature 24 °F 2 °F -23 °F (2009)
Degree Days  
Heating Degree Days 36    
Moisture  
Dew Point 24 °F    
Average Humidity 84    
Maximum Humidity 100    
Minimum Humidity 74    
Precipitation  
Precipitation 0.00 in - - ()
Sea Level Pressure  
Sea Level Pressure 29.60 in    
Wind  
Wind Speed 10 mph (WNW)    
Max Wind Speed 20 mph    
Max Gust Speed 26 mph    
Visibility 10 miles    
Events Snow    
Averages and records for this station are not official NWS values.
T = Trace of Precipitation, MM = Missing Value Source: NWS Daily Summary

Daily Weather History Graph

Daily Weather History Graph

Search for Another Location

Airport:

Trip Planner

Search our weather history database for the weather conditions in past years. The results will help you decide how hot, cold, wet, or windy it might be!

Date:

Astronomy

Jan. 13, 2014 Rise Set
Actual Time 7:53 AM CST 4:59 PM CST
Civil Twilight 7:21 AM CST 5:32 PM CST
Nautical Twilight 6:44 AM CST 6:09 PM CST
Astronomical Twilight 6:09 AM CST 6:44 PM CST
Moon 3:16 PM CST (1/13) 5:42 AM CST (1/13)
Length of Visible Light 10h 11m
Length of Day
9h 05m
Waxing Gibbous, 95% of the Moon is Illuminated
Jan 13
Waxing Gibbous
Jan 15
Full
Jan 23
Last Quarter
Jan 30
New
Feb 6
First Quarter

Hourly Weather History & Observations

Time (CST) Temp. Windchill Dew Point Humidity Pressure Visibility Wind Dir Wind Speed Gust Speed Precip Events Conditions
12:12 AM 35.6 °F 28.0 °F 30.2 °F 81% 29.50 in 10.0 mi WNW 10.4 mph - N/A   Clear
12:33 AM 33.8 °F 26.4 °F 30.2 °F 87% 29.51 in 10.0 mi WNW 9.2 mph - N/A   Clear
12:53 AM 33.8 °F 26.4 °F 30.2 °F 87% 29.51 in 10.0 mi WNW 9.2 mph - N/A   Clear
1:12 AM 33.8 °F 25.8 °F 28.4 °F 81% 29.52 in 10.0 mi WNW 10.4 mph - N/A   Clear
1:33 AM 33.8 °F 25.3 °F 28.4 °F 81% 29.53 in 10.0 mi WNW 11.5 mph - N/A   Clear
1:53 AM 32.0 °F 22.5 °F 28.4 °F 87% 29.53 in 10.0 mi WNW 12.7 mph - N/A   Clear
2:12 AM 32.0 °F 22.1 °F 28.4 °F 87% 29.54 in 10.0 mi NW 13.8 mph 19.6 mph N/A   Clear
2:33 AM 32.0 °F 22.5 °F 28.4 °F 87% 29.55 in 10.0 mi WNW 12.7 mph 20.7 mph N/A   Clear
2:53 AM 30.2 °F 17.8 °F 28.4 °F 93% 29.56 in 10.0 mi NW 19.6 mph 26.5 mph N/A   Mostly Cloudy
3:12 AM 30.2 °F 19.3 °F 28.4 °F 93% 29.56 in 10.0 mi WNW 15.0 mph 24.2 mph N/A   Overcast
3:33 AM 30.2 °F 18.9 °F 28.4 °F 93% 29.57 in 10.0 mi NW 16.1 mph 21.9 mph N/A   Overcast
3:53 AM 30.2 °F 17.8 °F 26.6 °F 86% 29.58 in 10.0 mi NW 19.6 mph 24.2 mph N/A   Overcast
4:12 AM 30.2 °F 18.1 °F 26.6 °F 86% 29.58 in 10.0 mi WNW 18.4 mph 26.5 mph N/A   Overcast
4:33 AM 28.4 °F 16.6 °F 24.8 °F 86% 29.59 in 10.0 mi NW 16.1 mph 26.5 mph N/A   Overcast
4:53 AM 28.4 °F 16.6 °F 23.0 °F 80% 29.59 in 10.0 mi NW 16.1 mph 25.3 mph N/A   Overcast
5:12 AM 28.4 °F 17.0 °F 21.2 °F 74% 29.60 in 10.0 mi NW 15.0 mph 21.9 mph N/A   Overcast
5:33 AM 28.4 °F 17.5 °F 21.2 °F 74% 29.62 in 10.0 mi NW 13.8 mph 21.9 mph N/A   Scattered Clouds
5:53 AM 28.4 °F 18.0 °F 21.2 °F 74% 29.63 in 10.0 mi NW 12.7 mph - N/A   Clear
6:12 AM 26.6 °F 16.2 °F 21.2 °F 80% 29.63 in 10.0 mi NW 11.5 mph - N/A   Clear
6:33 AM 26.6 °F 17.5 °F 21.2 °F 80% 29.64 in 10.0 mi WNW 9.2 mph - N/A   Scattered Clouds
6:53 AM 24.8 °F 16.9 °F 21.2 °F 86% 29.64 in 10.0 mi West 6.9 mph - N/A   Scattered Clouds
7:12 AM 24.8 °F 14.0 °F 21.2 °F 86% 29.65 in 10.0 mi WNW 11.5 mph - N/A   Scattered Clouds
7:33 AM 24.8 °F 13.4 °F 21.2 °F 86% 29.65 in 10.0 mi WNW 12.7 mph 18.4 mph N/A   Scattered Clouds
7:53 AM 24.8 °F 16.1 °F 19.4 °F 80% 29.66 in 10.0 mi WNW 8.1 mph - N/A   Clear
8:12 AM 24.8 °F 13.4 °F 19.4 °F 80% 29.66 in 10.0 mi WNW 12.7 mph - N/A   Clear
8:33 AM 24.8 °F 12.9 °F 17.6 °F 74% 29.67 in 10.0 mi WNW 13.8 mph - N/A   Clear
8:52 AM 24.8 °F 12.4 °F 17.6 °F 74% 29.67 in 10.0 mi WNW 15.0 mph - N/A   Clear
9:13 AM 24.8 °F 15.3 °F 17.6 °F 74% 29.67 in 10.0 mi WNW 9.2 mph 16.1 mph N/A   Clear
9:32 AM 24.8 °F 14.6 °F 19.4 °F 80% 29.67 in 10.0 mi WNW 10.4 mph - N/A   Clear
9:53 AM 24.8 °F 13.4 °F 19.4 °F 80% 29.68 in 10.0 mi West 12.7 mph - N/A   Clear
10:13 AM 24.8 °F 14.6 °F 19.4 °F 80% 29.68 in 10.0 mi West 10.4 mph 17.3 mph N/A   Clear
10:33 AM 24.8 °F 14.6 °F 19.4 °F 80% 29.68 in 10.0 mi WNW 10.4 mph - N/A   Clear
10:53 AM 24.8 °F 13.4 °F 19.4 °F 80% 29.68 in 10.0 mi WNW 12.7 mph 17.3 mph N/A   Clear
11:12 AM 24.8 °F 12.9 °F 19.4 °F 80% 29.67 in 10.0 mi WNW 13.8 mph 19.6 mph N/A   Clear
11:33 AM 26.6 °F 14.7 °F 19.4 °F 74% 29.67 in 10.0 mi WNW 15.0 mph 19.6 mph N/A   Clear
11:53 AM 26.6 °F 15.7 °F 19.4 °F 74% 29.66 in 10.0 mi WNW 12.7 mph 17.3 mph N/A   Clear
12:12 PM 26.6 °F 17.5 °F 19.4 °F 74% 29.65 in 10.0 mi West 9.2 mph - N/A   Clear
12:33 PM 26.6 °F 17.5 °F 19.4 °F 74% 29.64 in 10.0 mi West 9.2 mph - N/A   Clear
12:53 PM 28.4 °F 19.1 °F 21.2 °F 74% 29.64 in 10.0 mi WNW 10.4 mph - N/A   Clear
1:12 PM 28.4 °F 18.0 °F 21.2 °F 74% 29.64 in 10.0 mi West 12.7 mph - N/A   Clear
1:33 PM 28.4 °F 19.7 °F 21.2 °F 74% 29.64 in 10.0 mi West 9.2 mph - N/A   Clear
1:52 PM 28.4 °F 20.4 °F 21.2 °F 74% 29.63 in 10.0 mi West 8.1 mph - N/A   Clear
2:13 PM 28.4 °F 19.7 °F 21.2 °F 74% 29.63 in 10.0 mi West 9.2 mph - N/A   Clear
2:32 PM 28.4 °F 20.4 °F 21.2 °F 74% 29.64 in 10.0 mi West 8.1 mph - N/A   Clear
2:53 PM 28.4 °F 20.4 °F 21.2 °F 74% 29.63 in 10.0 mi West 8.1 mph - N/A   Clear
3:13 PM 28.4 °F 19.7 °F 21.2 °F 74% 29.64 in 10.0 mi West 9.2 mph - N/A   Clear
3:33 PM 28.4 °F 22.2 °F 23.0 °F 80% 29.64 in 10.0 mi West 5.8 mph - N/A   Mostly Cloudy
3:53 PM 28.4 °F 22.2 °F 21.2 °F 74% 29.64 in 10.0 mi West 5.8 mph - N/A   Scattered Clouds
4:13 PM 28.4 °F - 23.0 °F 80% 29.63 in 10.0 mi Calm Calm - N/A   Unknown
4:33 PM 28.4 °F - 23.0 °F 80% 29.63 in 10.0 mi Calm Calm - N/A   Clear
4:52 PM 28.4 °F - 23.0 °F 80% 29.63 in 10.0 mi Calm Calm - N/A   Unknown
5:13 PM 26.6 °F - 23.0 °F 86% 29.62 in 10.0 mi Calm Calm - N/A   Unknown
5:33 PM 26.6 °F - 23.0 °F 86% 29.62 in 10.0 mi Calm Calm - N/A   Overcast
5:53 PM 28.4 °F - 24.8 °F 86% 29.62 in 10.0 mi Calm Calm - N/A   Overcast
6:13 PM 28.4 °F - 26.6 °F 93% 29.62 in 10.0 mi Calm Calm - N/A   Overcast
6:33 PM 28.4 °F - 26.6 °F 93% 29.61 in 10.0 mi Calm Calm - N/A   Unknown
6:53 PM 28.4 °F - 26.6 °F 93% 29.60 in 5.0 mi Calm Calm - N/A Snow Light Snow
7:13 PM 28.4 °F - 28.4 °F 100% 29.60 in 7.0 mi Calm Calm - N/A Snow Light Snow
7:33 PM 28.4 °F - 28.4 °F 100% 29.59 in 7.0 mi Calm Calm - N/A Snow Light Snow
7:53 PM 28.4 °F 23.3 °F 26.6 °F 93% 29.58 in 7.0 mi SE 4.6 mph - N/A Snow Light Snow
8:13 PM 28.4 °F 23.3 °F 26.6 °F 93% 29.57 in 10.0 mi SE 4.6 mph - N/A   Overcast
8:33 PM 28.4 °F 23.3 °F 26.6 °F 93% 29.56 in 10.0 mi ESE 4.6 mph - N/A   Overcast
8:52 PM 28.4 °F 21.2 °F 26.6 °F 93% 29.54 in 10.0 mi ESE 6.9 mph - N/A   Overcast
9:13 PM 28.4 °F 23.3 °F 26.6 °F 93% 29.54 in 10.0 mi East 4.6 mph - N/A   Overcast
9:33 PM 28.4 °F 23.3 °F 26.6 °F 93% 29.53 in 10.0 mi East 4.6 mph - N/A   Overcast
9:53 PM 26.6 °F 19.1 °F 26.6 °F 100% 29.52 in 10.0 mi ESE 6.9 mph - N/A   Mostly Cloudy
10:13 PM 26.6 °F 19.1 °F 26.6 °F 100% 29.51 in 10.0 mi ESE 6.9 mph - N/A   Overcast
10:33 PM 26.6 °F 19.1 °F 26.6 °F 100% 29.51 in 10.0 mi ESE 6.9 mph - N/A   Overcast
10:53 PM 26.6 °F 18.2 °F 26.6 °F 100% 29.50 in 10.0 mi ESE 8.1 mph - N/A   Overcast
11:13 PM 28.4 °F 19.7 °F 26.6 °F 93% 29.50 in 10.0 mi ESE 9.2 mph - N/A   Overcast
11:33 PM 28.4 °F 21.2 °F 26.6 °F 93% 29.49 in 10.0 mi ESE 6.9 mph - N/A   Overcast
11:52 PM 28.4 °F 22.2 °F 26.6 °F 93% 29.48 in 7.0 mi ESE 5.8 mph - N/A   Overcast